#timestamp,LO_Frequency,Hit,StdDev 
1528412415.2,286047000.0,N
1528412435.1,286047001.2,N
1528412436.0,286047001.2,N
1528412455.8,286047000.5,N
1528412475.6,286046998.2,N
1528412495.5,286046998.2,N
1528412515.3,286046998.2,N
1528412535.1,286047000.5,N
1528412555.9,286047001.9,N
1528412575.7,286047002.2,N
1528412595.6,286047002.4,N
1528412615.4,286047001.2,N
1528412635.2,286046998.3,N
1528412655.1,286047000.5,N
1528412656.0,286047000.5,N
1528412675.8,286047000.7,N
1528412695.6,286047000.5,N
1528412715.5,286047000.7,N
1528412735.3,286046998.7,N
1528412755.2,286047000.9,N
1528412775.9,286047000.9,N
1528412795.7,286047000.1,N
1528412815.6,286047000.7,N
1528412835.4,286047000.6,N
1528412855.2,286047000.6,N
1528412875.1,286047000.8,N
1528412876.0,286047000.8,N
1528412895.8,286046999.7,N
1528412915.7,286047000.1,N
1528412935.5,286047000.4,N
1528412955.3,286047000.4,N
1528412975.2,286047000.2,N
1528412995.0,286047000.3,N
1528412995.9,286047000.3,N
1528413015.8,286047002.4,N
1528413035.6,286047002.4,N
1528413055.4,286047002.4,N
1528413075.3,286047002.4,N
1528413095.1,286046999.7,N
1528413115.9,286047000.0,N
1528413135.7,286047002.4,N
1528413155.5,286047004.0,Y
1528413175.4,286047002.7,P
1528413195.2,286047000.9,N
1528413215.0,286047002.8,P
1528413215.9,286047002.8,N
1528413235.8,286047002.6,N
1528413255.6,286047001.8,N
1528413275.5,286047002.6,N
1528413295.3,286047003.7,Y
1528413315.1,286047001.9,P
1528413335.9,286047002.0,P
1528413355.7,286047000.3,P
1528413375.5,286046998.3,N
1528413395.4,286046999.1,N
1528413415.2,286046996.5,N
1528413435.1,286046999.4,N
1528413436.0,286046999.4,N
1528413455.8,286047001.1,N
1528413475.6,286047000.4,N
1528413495.5,286046998.9,N
1528413515.3,286046999.2,N
1528413535.1,286047000.5,N
1528413555.9,286046998.2,N
1528413575.7,286046996.9,N
1528413595.6,286046996.8,N
1528413615.4,286046997.0,N
1528413635.2,286046999.3,N
1528413655.1,286046998.1,N
1528413656.0,286046998.1,N
1528413675.8,286047011.9,Y
1528413695.7,286047000.8,P
1528413715.5,286047000.4,N
1528413735.3,286047000.1,N
1528413755.2,286047000.0,N
1528413775.9,286047000.0,N
1528413795.7,286047002.3,Y
1528413815.6,286047000.0,P
1528413835.4,286047002.7,P
1528413855.3,286047001.0,N
1528413875.1,286047000.5,N
1528413876.0,286047000.5,N
1528413895.8,286047000.0,N
1528413915.7,286047001.2,N
1528413935.5,286047000.2,N
1528413955.3,286047000.3,N
1528413975.2,286047002.1,N
1528413995.0,286047002.7,Y
1528413995.9,286047002.7,P
1528414015.8,286047000.2,N
1528414035.6,286047000.6,N
1528414055.4,286046998.5,N
1528414075.3,286046998.1,N
1528414095.1,286046998.3,N
1528414115.8,286046998.1,N
1528414135.7,286046998.2,N
1528414155.5,286047000.8,N
1528414175.4,286047000.7,N
1528414195.2,286046999.4,N
1528414215.0,286046996.6,N
1528414215.9,286046996.6,N
1528414235.8,286046997.0,N
1528414255.6,286046999.4,N
1528414275.4,286046999.3,N
1528414295.3,286046999.5,N
1528414315.1,286046999.0,N
1528414335.9,286046998.1,N
1528414355.7,286046998.8,N
1528414375.5,286046998.6,N
1528414395.4,286046999.7,N
1528414415.2,286046999.8,N
1528414435.0,286046998.1,N
1528414435.9,286046998.1,N
1528414455.8,286046998.3,N
1528414475.6,286046998.2,N
1528414495.5,286047001.0,N
1528414515.3,286046998.1,N
1528414535.1,286047001.2,N
1528414555.9,286046999.7,N
1528414575.7,286046999.8,N
1528414595.6,286047001.8,N
1528414615.4,286047002.1,N
1528414635.2,286047004.3,Y
1528414655.1,286047005.8,P
1528414656.0,286047005.8,N
1528414675.8,286047005.9,N
1528414695.7,286047005.1,N
1528414715.5,286047007.5,N
1528414735.3,286047008.5,Y
1528414755.2,286047003.6,P
1528414775.0,286047003.5,P
1528414775.9,286047003.5,P
1528414795.8,286047004.8,Y
1528414815.6,286046998.7,P
1528414835.5,286046999.2,N
1528414855.3,286046997.2,N
1528414875.2,286046995.3,N
1528414895.0,286046993.3,N
1528414895.9,286046993.3,N
1528414915.8,286046996.2,N
1528414935.6,286046997.5,N
1528414955.4,286046998.8,N
1528414975.3,286046997.3,N
1528414995.1,286046996.9,N
1528415015.8,286046999.6,N
1528415035.7,286046997.7,N
1528415055.5,286046997.0,N
1528415075.4,286046998.0,N
1528415095.2,286046997.3,N
1528415115.0,286046995.9,N
1528415115.9,286046995.9,N
1528415135.8,286046996.3,N
1528415155.6,286046993.4,N
1528415175.4,286046996.1,N
1528415195.3,286046998.0,N
1528415215.1,286046997.9,N
1528415235.9,286046995.8,N
1528415255.7,286046996.0,N
1528415275.5,286046996.2,N
1528415295.4,286046996.3,N
1528415315.2,286046993.8,Y
1528415335.0,286046997.5,P
1528415335.9,286046997.5,P
1528415355.8,286046996.8,P
1528415375.6,286046998.0,Y
1528415395.5,286046999.4,P
1528415415.3,286047001.2,N
1528415435.1,286047000.8,N
1528415455.9,286046998.6,N
1528415475.7,286046998.4,N
1528415495.6,286046998.5,N
1528415515.4,286046998.2,N
1528415535.2,286046999.4,N
1528415555.1,286046998.9,N
1528415556.0,286046998.9,N
1528415575.8,286047000.7,N
1528415595.6,286047000.6,N
1528415615.5,286046998.3,N
1528415635.3,286046998.2,N
1528415655.2,286046998.2,N
1528415675.9,286046998.3,N
1528415695.7,286046999.4,N
1528415715.6,286046998.7,N
1528415735.4,286046997.2,N
1528415755.2,286046999.5,N
1528415775.1,286046996.8,N
1528415776.0,286046996.8,N
1528415795.8,286046997.8,N
1528415815.7,286046997.6,N
1528415835.5,286046999.0,N
1528415855.3,286046999.4,N
1528415875.2,286046998.1,N
1528415895.0,286046999.1,N
1528415895.9,286046999.1,N
1528415915.7,286046999.5,N
1528415935.6,286046999.6,N
1528415955.4,286046996.7,Y
1528415975.3,286046999.4,P
1528415995.1,286046997.3,P
1528415996.0,286046997.3,P
